Regional Weather Roundup
Issued by NWS Goodland, KS

Home | Current Version | Previous Version | Text Only | Print | Product List | Glossary On
Versions: 1 2 3 4 5 6 7 8 9 10 11 12 13 14 15 16 17 18 19 20 21 22 23 24 25 26 27 28 29 30 31 32 33 34 35 36 37 38 39 40 41 42 43 44 45 46 47 48 49 50
000
ASUS43 KGLD 170908
RWRGLD

GOODLAND FORECAST AREA HOURLY WEATHER ROUNDUP
NATIONAL WEATHER SERVICE GOODLAND KS
200 AM MST TUE JAN 17 2017

...OFFICIAL OBSERVATIONS...

CITY           SKY/WX    TMP DP  RH WIND       PRES   REMARKS
GOODLAND KS    CLOUDY    25  21  85 W9        30.09S
HILL CITY KS   MOCLDY    32  28  85 W8        30.10R
IMPERIAL NEB   CLOUDY    25  20  81 NW3       30.09R
MCCOOK NEB     CLEAR     28  23  81 W8        30.10R
AKRON CO       CLOUDY    19  13  77 W9        30.08S
BURLINGTON CO  CLOUDY    27  21  78 W9        30.10S
LIMON CO       CLOUDY    22  17  81 N7        30.10R
$$

...UNOFFICIAL OBSERVATIONS...

CITY           SKY/WX    TMP DP  RH WIND       PRES   REMARKS
LENORA KS        N/A     27  32 100 NW6         N/A
NORTON KS      CLEAR     28  21  74 W9        30.08R
SHARON SPRINGS   N/A     33  29  86 NW7         N/A
TRIBUNE KS     CLOUDY    36  30  80 W6        30.14R
TRENTON NEB      N/A     27  32 100 NW6         N/A
KIT CARSON CO    N/A     27  22  80 CALM        N/A
YUMA CO        FAIR      14   9  79 W10       30.09S WCI   1
$$




USA.gov is the U.S. government's official web portal to all federal, state and local government web resources and services.